Weather past 2 weeks in Willemstad, Curaçao

Now
79 °F

Passing clouds.


Feels Like: 82 °F
Forecast: 80 / 88 °F
Wind: 14 mph from Southeast

Location: Hato Airport - Curacao

Current Time: Apr 25, 2015 at 5:57:56 AM

Latest Report: Apr 25, 2015 at 3:00 AM


Visibility: N/A

Pressure: 29.86 "Hg

Humidity: 89%

Dew point: 75 °F

Location of WillemstadLocation

Historic Weather in Willemstad — Graph

°F

Willemstad temperature yesterday

Maximum temperature yesterday: 86 °F (at 11:00 AM)
Minimum temperature yesterday: 79 °F (at 12:00 AM)
Average temperature yesterday: 82 °F

Past Weeks' High & Low Weather Summary

 TemperatureHumidityPressure
High90 °F (Apr 22, 3:00 PM)89% (Apr 19, 3:00 AM)30.04 "Hg (Apr 19, 3:00 AM)
Low79 °F (Apr 10, 3:00 AM)46% (Apr 22, 3:00 PM)29.80 "Hg (Apr 24, 5:00 PM)
Average82 °F75%29.93 "Hg
* Reported Apr 10 3:00 AM — Apr 25 3:00 AM, Willemstad, Weather by CustomWeather, © 2015

Note: Actual official high and low records may vary slightly from our data, if they occured in-between our weather recording intervals... More about our weather records

Advertising

Willemstad weather history for previous 24 hours

 ConditionsComfort  
Time TempWeatherWind HumidityBarometerVisibility
3:00 AM
Sat, Apr 25
79 °FPassing clouds.14 mph89%29.86 "HgN/A
2:00 AM79 °FPassing clouds.13 mph89%29.89 "HgN/A
1:00 AM81 °FPassing clouds.14 mph84%29.89 "HgN/A
12:00 AM81 °FPassing clouds.15 mph84%29.89 "HgN/A
11:00 PM
Fri, Apr 24
81 °FPassing clouds.15 mph84%29.89 "HgN/A
10:00 PM81 °FPassing clouds.15 mph84%29.89 "HgN/A
9:00 PM81 °FPassing clouds.15 mph84%29.86 "HgN/A
8:00 PM81 °FPassing clouds.15 mph84%29.86 "HgN/A
7:00 PM81 °FPassing clouds.14 mph84%29.83 "Hg5 mi
6:00 PM82 °FPassing clouds.14 mph79%29.80 "Hg5 mi
5:00 PM86 °FPassing clouds.10 mph70%29.80 "HgN/A
4:00 PM86 °FPassing clouds.15 mph70%29.83 "HgN/A
3:00 PM86 °FPassing clouds.16 mph70%29.83 "HgN/A
2:00 PM86 °FScattered clouds.16 mph70%29.86 "HgN/A
1:00 PM84 °FPartly sunny.15 mph74%29.89 "HgN/A
12:00 PM86 °FPartly sunny.16 mph70%29.92 "HgN/A
11:00 AM86 °FPartly sunny.15 mph66%29.92 "HgN/A
10:00 AM84 °FPartly sunny.15 mph70%29.95 "HgN/A
9:00 AM84 °FScattered clouds.17 mph70%29.95 "HgN/A
8:00 AM81 °FPassing clouds.13 mph79%29.95 "HgN/A
7:00 AM79 °FPassing clouds.12 mph84%29.92 "HgN/A
6:00 AM79 °FPassing clouds.14 mph84%29.89 "HgN/A
5:00 AM79 °FPassing clouds.12 mph79%29.89 "HgN/A
Weather by CustomWeather, © 2015

See weather overviewHow to use our weather pages